owner,sensor,date,latitude,longitude,vertical_datum,direction_of_sea_water_velocity,sea_water_speed,upward_sea_water_velocity,qcFlag 
TABS,ioos:station:wmo:42051:1,2013-06-01T00:00:00Z,29.6350,-93.6417,2.0,246.4940146,74.49120888,-99999.0,'11111222,11111222,99999999' 
TABS,ioos:station:wmo:42051:1,2013-06-01T00:30:00Z,29.6350,-93.6417,2.0,249.1535564,82.08317854,-99999.0,'11111222,11111222,99999999' 
TABS,ioos:station:wmo:42051:1,2013-06-01T01:00:00Z,29.6350,-93.6417,2.0,253.8101327,63.84164863,-99999.0,'11111222,11111222,99999999' 
TABS,ioos:station:wmo:42051:1,2013-06-01T01:30:00Z,29.6350,-93.6417,2.0,259.5576983,70.29412849,-99999.0,'11111222,11111222,99999999' 
TABS,ioos:station:wmo:42051:1,2013-06-01T02:00:00Z,29.6350,-93.6417,2.0,250.1329972,76.06703688,-99999.0,'11111222,11111222,99999999' 
TABS,ioos:station:wmo:42051:1,2013-06-01T02:30:00Z,29.6350,-93.6417,2.0,245.8996155,80.79234246,-99999.0,'11111222,11111222,99999999' 
TABS,ioos:station:wmo:42051:1,2013-06-01T03:00:00Z,29.6350,-93.6417,2.0,253.3243143,61.8928243,-99999.0,'11111222,11111222,99999999' 
TABS,ioos:station:wmo:42051:1,2013-06-01T03:30:00Z,29.6350,-93.6417,2.0,251.1422499,59.62004109,-99999.0,'11111222,11111222,99999999' 
TABS,ioos:station:wmo:42051:1,2013-06-01T04:00:00Z,29.6350,-93.6417,2.0,270.9408942,43.86590931,-99999.0,'11111222,11111222,99999999' 
TABS,ioos:station:wmo:42051:1,2013-06-01T04:30:00Z,29.6350,-93.6417,2.0,270.2369612,43.60037156,-99999.0,'11111222,11111222,99999999' 
TABS,ioos:station:wmo:42051:1,2013-06-01T05:00:00Z,29.6350,-93.6417,2.0,266.0555103,53.35636607,-99999.0,'11111222,11111222,99999999' 
TABS,ioos:station:wmo:42051:1,2013-06-01T05:30:00Z,29.6350,-93.6417,2.0,264.1990234,65.89741421,-99999.0,'11111222,11111222,99999999' 
TABS,ioos:station:wmo:42051:1,2013-06-01T06:00:00Z,29.6350,-93.6417,2.0,268.1528359,64.23336283,-99999.0,'11111222,11111222,99999999' 
TABS,ioos:station:wmo:42051:1,2013-06-01T06:30:00Z,29.6350,-93.6417,2.0,264.7172128,58.9804866,-99999.0,'11111222,11111222,99999999' 
TABS,ioos:station:wmo:42051:1,2013-06-01T07:00:00Z,29.6350,-93.6417,2.0,270.0958557,66.04009161,-99999.0,'11111222,11111222,99999999' 
TABS,ioos:station:wmo:42051:1,2013-06-01T07:30:00Z,29.6350,-93.6417,2.0,270.224126,64.03048805,-99999.0,'11111222,11111222,99999999' 
TABS,ioos:station:wmo:42051:1,2013-06-01T08:00:00Z,29.6350,-93.6417,2.0,266.4977803,60.90371499,-99999.0,'11111222,11111222,99999999' 
TABS,ioos:station:wmo:42051:1,2013-06-01T08:30:00Z,29.6350,-93.6417,2.0,265.4227618,55.01543147,-99999.0,'11111222,11111222,99999999' 
TABS,ioos:station:wmo:42051:1,2013-06-01T09:00:00Z,29.6350,-93.6417,2.0,268.0886548,64.47585672,-99999.0,'11111222,11111222,99999999' 
TABS,ioos:station:wmo:42051:1,2013-06-01T09:30:00Z,29.6350,-93.6417,2.0,262.0339709,65.52219853,-99999.0,'11111222,11111222,99999999' 
TABS,ioos:station:wmo:42051:1,2013-06-01T10:00:00Z,29.6350,-93.6417,2.0,255.2574889,60.83255132,-99999.0,'11111222,11111222,99999999' 
TABS,ioos:station:wmo:42051:1,2013-06-01T10:30:00Z,29.6350,-93.6417,2.0,248.6990962,56.92893816,-99999.0,'11111222,11111222,99999999' 
TABS,ioos:station:wmo:42051:1,2013-06-01T11:00:00Z,29.6350,-93.6417,2.0,243.893266,57.54034498,-99999.0,'11111222,11111222,99999999' 
TABS,ioos:station:wmo:42051:1,2013-06-01T11:30:00Z,29.6350,-93.6417,2.0,243.008536,52.92472012,-99999.0,'11111222,11111222,99999999' 
TABS,ioos:station:wmo:42051:1,2013-06-01T12:00:00Z,29.6350,-93.6417,2.0,240.9162656,54.14725108,-99999.0,'11111222,11111222,99999999' 
TABS,ioos:station:wmo:42051:1,2013-06-01T12:30:00Z,29.6350,-93.6417,2.0,231.2405296,47.7439525,-99999.0,'11111222,11111222,99999999' 
TABS,ioos:station:wmo:42051:1,2013-06-01T13:00:00Z,29.6350,-93.6417,2.0,214.8156273,50.11019557,-99999.0,'11111222,11111222,99999999' 
TABS,ioos:station:wmo:42051:1,2013-06-01T13:30:00Z,29.6350,-93.6417,2.0,210.6915505,39.02665756,-99999.0,'11111222,11111222,99999999' 
TABS,ioos:station:wmo:42051:1,2013-06-01T14:00:00Z,29.6350,-93.6417,2.0,204.0785031,34.02025867,-99999.0,'11111222,11111222,99999999' 
TABS,ioos:station:wmo:42051:1,2013-06-01T14:30:00Z,29.6350,-93.6417,2.0,227.0800217,26.49153827,-99999.0,'11111222,11111222,99999999' 
TABS,ioos:station:wmo:42051:1,2013-06-01T15:00:00Z,29.6350,-93.6417,2.0,224.9996843,16.73014644,-99999.0,'11111222,11111222,99999999' 
TABS,ioos:station:wmo:42051:1,2013-06-01T15:30:00Z,29.6350,-93.6417,2.0,227.7152292,14.32793076,-99999.0,'11111222,11111222,99999999' 
TABS,ioos:station:wmo:42051:1,2013-06-01T16:00:00Z,29.6350,-93.6417,2.0,229.124327,17.00754244,-99999.0,'11111222,11111222,99999999' 
TABS,ioos:station:wmo:42051:1,2013-06-01T16:30:00Z,29.6350,-93.6417,2.0,232.0342037,23.32626417,-99999.0,'11111222,11111222,99999999' 
TABS,ioos:station:wmo:42051:1,2013-06-01T17:00:00Z,29.6350,-93.6417,2.0,234.2187242,30.93958791,-99999.0,'11111222,11111222,99999999' 
TABS,ioos:station:wmo:42051:1,2013-06-01T17:30:00Z,29.6350,-93.6417,2.0,219.0910439,33.17693325,-99999.0,'11111222,11111222,99999999' 
TABS,ioos:station:wmo:42051:1,2013-06-01T18:00:00Z,29.6350,-93.6417,2.0,224.9023752,41.63450732,-99999.0,'11111222,11111222,99999999' 
TABS,ioos:station:wmo:42051:1,2013-06-01T18:30:00Z,29.6350,-93.6417,2.0,222.699635,44.57656896,-99999.0,'11111222,11111222,99999999' 
TABS,ioos:station:wmo:42051:1,2013-06-01T19:00:00Z,29.6350,-93.6417,2.0,221.9394041,46.62239805,-99999.0,'11111222,11111222,99999999' 
TABS,ioos:station:wmo:42051:1,2013-06-01T19:30:00Z,29.6350,-93.6417,2.0,225.3945935,49.24408594,-99999.0,'11111222,11111222,99999999' 
TABS,ioos:station:wmo:42051:1,2013-06-01T20:00:00Z,29.6350,-93.6417,2.0,240.4130719,46.2390852,-99999.0,'11111222,11111222,99999999' 
TABS,ioos:station:wmo:42051:1,2013-06-01T20:30:00Z,29.6350,-93.6417,2.0,248.4034122,61.18514934,-99999.0,'11111222,11111222,99999999' 
TABS,ioos:station:wmo:42051:1,2013-06-01T21:00:00Z,29.6350,-93.6417,2.0,260.6980355,59.76584309,-99999.0,'11111222,11111222,99999999' 
TABS,ioos:station:wmo:42051:1,2013-06-01T21:30:00Z,29.6350,-93.6417,2.0,269.012686,68.51016275,-99999.0,'11111222,11111222,99999999' 
TABS,ioos:station:wmo:42051:1,2013-06-01T22:00:00Z,29.6350,-93.6417,2.0,266.4896852,67.78715291,-99999.0,'11111222,11111222,99999999' 
TABS,ioos:station:wmo:42051:1,2013-06-01T22:30:00Z,29.6350,-93.6417,2.0,272.7417168,65.44489132,-99999.0,'11111222,11111222,99999999' 
TABS,ioos:station:wmo:42051:1,2013-06-01T23:00:00Z,29.6350,-93.6417,2.0,273.4042274,62.14963958,-99999.0,'11111222,11111222,99999999' 
TABS,ioos:station:wmo:42051:1,2013-06-01T23:30:00Z,29.6350,-93.6417,2.0,274.289331,61.24149982,-99999.0,'11111222,11111222,99999999' 
TABS,ioos:station:wmo:42051:1,2013-06-02T00:00:00Z,29.6350,-93.6417,2.0,273.7798795,59.46933664,-99999.0,'11111222,11111222,99999999' 
TABS,ioos:station:wmo:42051:1,2013-06-02T00:30:00Z,29.6350,-93.6417,2.0,277.8646395,59.12607716,-99999.0,'11111222,11111222,99999999' 
TABS,ioos:station:wmo:42051:1,2013-06-02T01:00:00Z,29.6350,-93.6417,2.0,284.5493688,65.04580847,-99999.0,'11111222,11111222,99999999' 
TABS,ioos:station:wmo:42051:1,2013-06-02T01:30:00Z,29.6350,-93.6417,2.0,283.9935521,61.28876977,-99999.0,'11111222,11111222,99999999' 
TABS,ioos:station:wmo:42051:1,2013-06-02T02:00:00Z,29.6350,-93.6417,2.0,282.3457216,61.64544428,-99999.0,'11111222,11111222,99999999' 
TABS,ioos:station:wmo:42051:1,2013-06-02T02:30:00Z,29.6350,-93.6417,2.0,283.7871124,63.48915262,-99999.0,'11111222,11111222,99999999' 
TABS,ioos:station:wmo:42051:1,2013-06-02T03:00:00Z,29.6350,-93.6417,2.0,284.6186141,63.75377793,-99999.0,'11111222,11111222,99999999' 
TABS,ioos:station:wmo:42051:1,2013-06-02T03:30:00Z,29.6350,-93.6417,2.0,280.1966561,59.93656814,-99999.0,'11111222,11111222,99999999' 
TABS,ioos:station:wmo:42051:1,2013-06-02T04:00:00Z,29.6350,-93.6417,2.0,280.4598301,54.69889396,-99999.0,'11111222,11111222,99999999' 
TABS,ioos:station:wmo:42051:1,2013-06-02T04:30:00Z,29.6350,-93.6417,2.0,280.2952191,56.23532164,-99999.0,'11111222,11111222,99999999' 
TABS,ioos:station:wmo:42051:1,2013-06-02T05:00:00Z,29.6350,-93.6417,2.0,281.7935011,57.44249733,-99999.0,'11111222,11111222,99999999' 
TABS,ioos:station:wmo:42051:1,2013-06-02T05:30:00Z,29.6350,-93.6417,2.0,276.2713676,53.92264923,-99999.0,'11111222,11111222,99999999' 
TABS,ioos:station:wmo:42051:1,2013-06-02T06:00:00Z,29.6350,-93.6417,2.0,270.7297293,47.92388236,-99999.0,'11111222,11111222,99999999' 
TABS,ioos:station:wmo:42051:1,2013-06-02T06:30:00Z,29.6350,-93.6417,2.0,274.7579801,47.02201187,-99999.0,'11111222,11111222,99999999' 
TABS,ioos:station:wmo:42051:1,2013-06-02T07:00:00Z,29.6350,-93.6417,2.0,272.6274538,41.45356559,-99999.0,'11111222,11111222,99999999' 
TABS,ioos:station:wmo:42051:1,2013-06-02T07:30:00Z,29.6350,-93.6417,2.0,262.0366772,40.71255335,-99999.0,'11111222,11111222,99999999' 
TABS,ioos:station:wmo:42051:1,2013-06-02T08:00:00Z,29.6350,-93.6417,2.0,257.8492382,39.57657135,-99999.0,'11111222,11111222,99999999' 
TABS,ioos:station:wmo:42051:1,2013-06-02T08:30:00Z,29.6350,-93.6417,2.0,262.5663305,39.88518647,-99999.0,'11111222,11111222,99999999' 
TABS,ioos:station:wmo:42051:1,2013-06-02T09:00:00Z,29.6350,-93.6417,2.0,255.8154691,40.40171902,-99999.0,'11111222,11111222,99999999' 
TABS,ioos:station:wmo:42051:1,2013-06-02T09:30:00Z,29.6350,-93.6417,2.0,237.9634066,41.32296335,-99999.0,'11111222,11111222,99999999' 
TABS,ioos:station:wmo:42051:1,2013-06-02T10:00:00Z,29.6350,-93.6417,2.0,239.6499046,37.12814566,-99999.0,'11111222,11111222,99999999' 
TABS,ioos:station:wmo:42051:1,2013-06-02T10:30:00Z,29.6350,-93.6417,2.0,234.7640246,38.14951769,-99999.0,'11111222,11111222,99999999' 
TABS,ioos:station:wmo:42051:1,2013-06-02T11:00:00Z,29.6350,-93.6417,2.0,227.2821096,39.59403617,-99999.0,'11111222,11111222,99999999' 
TABS,ioos:station:wmo:42051:1,2013-06-02T11:30:00Z,29.6350,-93.6417,2.0,222.6133502,42.62600732,-99999.0,'11111222,11111222,99999999' 
TABS,ioos:station:wmo:42051:1,2013-06-02T12:00:00Z,29.6350,-93.6417,2.0,229.1400774,41.62286992,-99999.0,'11111222,11111222,99999999' 
TABS,ioos:station:wmo:42051:1,2013-06-02T12:30:00Z,29.6350,-93.6417,2.0,220.7138062,40.21247692,-99999.0,'11111222,11111222,99999999' 
TABS,ioos:station:wmo:42051:1,2013-06-02T13:00:00Z,29.6350,-93.6417,2.0,220.3750327,46.480966,-99999.0,'11111222,11111222,99999999' 
TABS,ioos:station:wmo:42051:1,2013-06-02T13:30:00Z,29.6350,-93.6417,2.0,218.5838384,56.76140326,-99999.0,'11111222,11111222,99999999' 
TABS,ioos:station:wmo:42051:1,2013-06-02T14:00:00Z,29.6350,-93.6417,2.0,224.3952487,69.7104655,-99999.0,'11111222,11111222,99999999' 
TABS,ioos:station:wmo:42051:1,2013-06-02T14:30:00Z,29.6350,-93.6417,2.0,223.6505686,65.77209211,-99999.0,'11111222,11111222,99999999' 
TABS,ioos:station:wmo:42051:1,2013-06-02T15:00:00Z,29.6350,-93.6417,2.0,221.0854733,76.96425469,-99999.0,'11111222,11111222,99999999' 
TABS,ioos:station:wmo:42051:1,2013-06-02T15:30:00Z,29.6350,-93.6417,2.0,223.3100514,84.17523448,-99999.0,'11111222,11111222,99999999' 
TABS,ioos:station:wmo:42051:1,2013-06-02T16:00:00Z,29.6350,-93.6417,2.0,228.3085558,84.28622189,-99999.0,'11111222,11111222,99999999' 
TABS,ioos:station:wmo:42051:1,2013-06-02T16:30:00Z,29.6350,-93.6417,2.0,233.9305203,85.72237164,-99999.0,'11111222,11111222,99999999' 
TABS,ioos:station:wmo:42051:1,2013-06-02T17:00:00Z,29.6350,-93.6417,2.0,239.9718781,91.44324196,-99999.0,'11111222,11111222,99999999' 
TABS,ioos:station:wmo:42051:1,2013-06-02T17:30:00Z,29.6350,-93.6417,2.0,240.6026023,84.99388743,-99999.0,'11111222,11111222,99999999' 
TABS,ioos:station:wmo:42051:1,2013-06-02T18:00:00Z,29.6350,-93.6417,2.0,243.940566,84.06601751,-99999.0,'11111222,11111222,99999999' 
TABS,ioos:station:wmo:42051:1,2013-06-02T18:30:00Z,29.6350,-93.6417,2.0,246.6439317,87.15103327,-99999.0,'11111222,11111222,99999999' 
TABS,ioos:station:wmo:42051:1,2013-06-02T19:00:00Z,29.6350,-93.6417,2.0,249.3922357,79.66760006,-99999.0,'11111222,11111222,99999999' 
TABS,ioos:station:wmo:42051:1,2013-06-02T19:30:00Z,29.6350,-93.6417,2.0,255.8867308,85.22224416,-99999.0,'11111222,11111222,99999999' 
TABS,ioos:station:wmo:42051:1,2013-06-02T20:00:00Z,29.6350,-93.6417,2.0,249.0669514,82.79435548,-99999.0,'11111222,11111222,99999999' 
TABS,ioos:station:wmo:42051:1,2013-06-02T20:30:00Z,29.6350,-93.6417,2.0,254.3282071,78.70575583,-99999.0,'11111222,11111222,99999999' 
TABS,ioos:station:wmo:42051:1,2013-06-02T21:00:00Z,29.6350,-93.6417,2.0,261.5451722,76.45078155,-99999.0,'11111222,11111222,99999999' 
TABS,ioos:station:wmo:42051:1,2013-06-02T21:30:00Z,29.6350,-93.6417,2.0,261.6180405,77.65945725,-99999.0,'11111222,11111222,99999999' 
TABS,ioos:station:wmo:42051:1,2013-06-02T22:00:00Z,29.6350,-93.6417,2.0,267.7022577,81.82576611,-99999.0,'11111222,11111222,99999999' 
TABS,ioos:station:wmo:42051:1,2013-06-02T22:30:00Z,29.6350,-93.6417,2.0,269.3487148,66.90431675,-99999.0,'11111222,11111222,99999999' 
TABS,ioos:station:wmo:42051:1,2013-06-02T23:00:00Z,29.6350,-93.6417,2.0,270.0563659,71.69003417,-99999.0,'11111222,11111222,99999999' 
TABS,ioos:station:wmo:42051:1,2013-06-02T23:30:00Z,29.6350,-93.6417,2.0,270.7697536,74.47671381,-99999.0,'11111222,11111222,99999999' 
TABS,ioos:station:wmo:42051:1,2013-06-03T00:00:00Z,29.6350,-93.6417,2.0,269.6612879,69.44121039,-99999.0,'11111222,11111222,99999999' 
TABS,ioos:station:wmo:42051:1,2013-06-03T00:30:00Z,29.6350,-93.6417,2.0,272.8403306,71.24750171,-99999.0,'11111222,11111222,99999999' 
TABS,ioos:station:wmo:42051:1,2013-06-03T01:00:00Z,29.6350,-93.6417,2.0,267.0128828,75.04193294,-99999.0,'11111222,11111222,99999999' 
TABS,ioos:station:wmo:42051:1,2013-06-03T01:30:00Z,29.6350,-93.6417,2.0,266.3791064,79.33834193,-99999.0,'11111222,11111222,99999999' 
TABS,ioos:station:wmo:42051:1,2013-06-03T02:00:00Z,29.6350,-93.6417,2.0,266.3640316,76.64424114,-99999.0,'11111222,11111222,99999999' 
TABS,ioos:station:wmo:42051:1,2013-06-03T02:30:00Z,29.6350,-93.6417,2.0,268.5152103,82.99785178,-99999.0,'11111222,11111222,99999999' 
TABS,ioos:station:wmo:42051:1,2013-06-03T03:00:00Z,29.6350,-93.6417,2.0,269.1249044,86.47007575,-99999.0,'11111222,11111222,99999999' 
TABS,ioos:station:wmo:42051:1,2013-06-03T03:30:00Z,29.6350,-93.6417,2.0,272.8334482,78.9064389,-99999.0,'11111222,11111222,99999999' 
TABS,ioos:station:wmo:42051:1,2013-06-03T04:00:00Z,29.6350,-93.6417,2.0,272.8111684,74.22930149,-99999.0,'11111222,11111222,99999999' 
TABS,ioos:station:wmo:42051:1,2013-06-03T04:30:00Z,29.6350,-93.6417,2.0,280.2210746,68.19209705,-99999.0,'11111222,11111222,99999999' 
TABS,ioos:station:wmo:42051:1,2013-06-03T05:00:00Z,29.6350,-93.6417,2.0,282.7211731,60.53586871,-99999.0,'11111222,11111222,99999999' 
TABS,ioos:station:wmo:42051:1,2013-06-03T05:30:00Z,29.6350,-93.6417,2.0,281.8059699,53.27694154,-99999.0,'11111222,11111222,99999999' 
TABS,ioos:station:wmo:42051:1,2013-06-03T06:00:00Z,29.6350,-93.6417,2.0,273.608281,60.0690511,-99999.0,'11111222,11111222,99999999' 
TABS,ioos:station:wmo:42051:1,2013-06-03T06:30:00Z,29.6350,-93.6417,2.0,276.9480168,59.68828109,-99999.0,'11111222,11111222,99999999' 
TABS,ioos:station:wmo:42051:1,2013-06-03T07:00:00Z,29.6350,-93.6417,2.0,268.1254869,62.07320275,-99999.0,'11111222,11111222,99999999' 
TABS,ioos:station:wmo:42051:1,2013-06-03T07:30:00Z,29.6350,-93.6417,2.0,270.6906965,78.85572268,-99999.0,'11111222,11111222,99999999' 
TABS,ioos:station:wmo:42051:1,2013-06-03T08:00:00Z,29.6350,-93.6417,2.0,269.274855,72.73581855,-99999.0,'11111222,11111222,99999999' 
TABS,ioos:station:wmo:42051:1,2013-06-03T08:30:00Z,29.6350,-93.6417,2.0,261.5559519,67.96670729,-99999.0,'11111222,11111222,99999999' 
TABS,ioos:station:wmo:42051:1,2013-06-03T09:00:00Z,29.6350,-93.6417,2.0,259.3005813,64.74553884,-99999.0,'11111222,11111222,99999999' 
TABS,ioos:station:wmo:42051:1,2013-06-03T09:30:00Z,29.6350,-93.6417,2.0,258.1245232,65.21570976,-99999.0,'11111222,11111222,99999999' 
TABS,ioos:station:wmo:42051:1,2013-06-03T10:00:00Z,29.6350,-93.6417,2.0,254.7834474,55.4748096,-99999.0,'11111222,11111222,99999999' 
TABS,ioos:station:wmo:42051:1,2013-06-03T10:30:00Z,29.6350,-93.6417,2.0,259.2778707,56.54718384,-99999.0,'11111222,11111222,99999999' 
TABS,ioos:station:wmo:42051:1,2013-06-03T11:00:00Z,29.6350,-93.6417,2.0,260.0116034,61.46150421,-99999.0,'11111222,11111222,99999999' 
TABS,ioos:station:wmo:42051:1,2013-06-03T11:30:00Z,29.6350,-93.6417,2.0,255.7827843,60.79185636,-99999.0,'11111222,11111222,99999999' 
TABS,ioos:station:wmo:42051:1,2013-06-03T12:00:00Z,29.6350,-93.6417,2.0,250.8081201,54.60464632,-99999.0,'11111222,11111222,99999999' 
TABS,ioos:station:wmo:42051:1,2013-06-03T12:30:00Z,29.6350,-93.6417,2.0,248.8439729,55.36115335,-99999.0,'11111222,11111222,99999999' 
TABS,ioos:station:wmo:42051:1,2013-06-03T13:00:00Z,29.6350,-93.6417,2.0,250.0379901,54.71734003,-99999.0,'11111222,11111222,99999999' 
TABS,ioos:station:wmo:42051:1,2013-06-03T13:30:00Z,29.6350,-93.6417,2.0,252.0573461,60.31318927,-99999.0,'11111222,11111222,99999999' 
TABS,ioos:station:wmo:42051:1,2013-06-03T14:00:00Z,29.6350,-93.6417,2.0,252.5821635,62.50594932,-99999.0,'11111222,11111222,99999999' 
TABS,ioos:station:wmo:42051:1,2013-06-03T14:30:00Z,29.6350,-93.6417,2.0,254.6370166,55.63802746,-99999.0,'11111222,11111222,99999999' 
TABS,ioos:station:wmo:42051:1,2013-06-03T15:00:00Z,29.6350,-93.6417,2.0,255.9020057,56.61512342,-99999.0,'11111222,11111222,99999999' 
TABS,ioos:station:wmo:42051:1,2013-06-03T15:30:00Z,29.6350,-93.6417,2.0,254.1084425,50.80145372,-99999.0,'11111222,11111222,99999999' 
TABS,ioos:station:wmo:42051:1,2013-06-03T16:00:00Z,29.6350,-93.6417,2.0,256.2441213,51.47637905,-99999.0,'11111222,11111222,99999999' 
TABS,ioos:station:wmo:42051:1,2013-06-03T16:30:00Z,29.6350,-93.6417,2.0,254.1833123,44.50493568,-99999.0,'11111222,11111222,99999999' 
TABS,ioos:station:wmo:42051:1,2013-06-03T17:00:00Z,29.6350,-93.6417,2.0,254.1343718,50.0775898,-99999.0,'11111222,11111222,99999999' 
TABS,ioos:station:wmo:42051:1,2013-06-03T17:30:00Z,29.6350,-93.6417,2.0,250.4614969,47.30379266,-99999.0,'11111222,11111222,99999999' 
TABS,ioos:station:wmo:42051:1,2013-06-03T18:00:00Z,29.6350,-93.6417,2.0,246.2699153,47.73587854,-99999.0,'11111222,11111222,99999999' 
TABS,ioos:station:wmo:42051:1,2013-06-03T18:30:00Z,29.6350,-93.6417,2.0,249.4063113,50.37920206,-99999.0,'11111222,11111222,99999999' 
TABS,ioos:station:wmo:42051:1,2013-06-03T19:00:00Z,29.6350,-93.6417,2.0,248.5841306,49.62634784,-99999.0,'11111222,11111222,99999999' 
TABS,ioos:station:wmo:42051:1,2013-06-03T19:30:00Z,29.6350,-93.6417,2.0,247.9565524,47.98781616,-99999.0,'11111222,11111222,99999999' 
TABS,ioos:station:wmo:42051:1,2013-06-03T20:00:00Z,29.6350,-93.6417,2.0,247.0931798,43.5220829,-99999.0,'11111222,11111222,99999999' 
TABS,ioos:station:wmo:42051:1,2013-06-03T20:30:00Z,29.6350,-93.6417,2.0,248.4853721,44.09205484,-99999.0,'11111222,11111222,99999999' 
TABS,ioos:station:wmo:42051:1,2013-06-03T21:00:00Z,29.6350,-93.6417,2.0,250.5380675,44.3011343,-99999.0,'11111222,11111222,99999999' 
TABS,ioos:station:wmo:42051:1,2013-06-03T21:30:00Z,29.6350,-93.6417,2.0,252.4209786,35.75986717,-99999.0,'11111222,11111222,99999999' 
TABS,ioos:station:wmo:42051:1,2013-06-03T22:00:00Z,29.6350,-93.6417,2.0,253.9055656,36.00095138,-99999.0,'11111222,11111222,99999999' 
TABS,ioos:station:wmo:42051:1,2013-06-03T22:30:00Z,29.6350,-93.6417,2.0,254.4635188,33.26545656,-99999.0,'11111222,11111222,99999999' 
TABS,ioos:station:wmo:42051:1,2013-06-03T23:00:00Z,29.6350,-93.6417,2.0,253.9293331,39.70141811,-99999.0,'11111222,11111222,99999999' 
TABS,ioos:station:wmo:42051:1,2013-06-03T23:30:00Z,29.6350,-93.6417,2.0,244.9868877,41.76718928,-99999.0,'11111222,11111222,99999999' 
TABS,ioos:station:wmo:42051:1,2013-06-04T00:00:00Z,29.6350,-93.6417,2.0,243.3733113,41.81449509,-99999.0,'11111222,11111222,99999999' 
TABS,ioos:station:wmo:42051:1,2013-06-04T00:30:00Z,29.6350,-93.6417,2.0,249.3220677,41.94178942,-99999.0,'11111222,11111222,99999999' 
TABS,ioos:station:wmo:42051:1,2013-06-04T01:00:00Z,29.6350,-93.6417,2.0,252.2329438,40.66965699,-99999.0,'11111222,11111222,99999999' 
TABS,ioos:station:wmo:42051:1,2013-06-04T01:30:00Z,29.6350,-93.6417,2.0,256.0414345,28.48098488,-99999.0,'11111222,11111222,99999999' 
TABS,ioos:station:wmo:42051:1,2013-06-04T02:00:00Z,29.6350,-93.6417,2.0,246.155324,39.38130013,-99999.0,'11111222,11111222,99999999' 
TABS,ioos:station:wmo:42051:1,2013-06-04T02:30:00Z,29.6350,-93.6417,2.0,253.5680746,37.72056866,-99999.0,'11111222,11111222,99999999' 
TABS,ioos:station:wmo:42051:1,2013-06-04T03:00:00Z,29.6350,-93.6417,2.0,252.1728846,37.2379175,-99999.0,'11111222,11111222,99999999' 
TABS,ioos:station:wmo:42051:1,2013-06-04T03:30:00Z,29.6350,-93.6417,2.0,253.0494493,44.17920325,-99999.0,'11111222,11111222,99999999' 
TABS,ioos:station:wmo:42051:1,2013-06-04T04:00:00Z,29.6350,-93.6417,2.0,256.7996052,44.53670958,-99999.0,'11111222,11111222,99999999' 
TABS,ioos:station:wmo:42051:1,2013-06-04T04:30:00Z,29.6350,-93.6417,2.0,255.882311,46.28797036,-99999.0,'11111222,11111222,99999999' 
TABS,ioos:station:wmo:42051:1,2013-06-04T05:00:00Z,29.6350,-93.6417,2.0,251.2896181,45.45194055,-99999.0,'11111222,11111222,99999999' 
TABS,ioos:station:wmo:42051:1,2013-06-04T05:30:00Z,29.6350,-93.6417,2.0,253.2827785,43.66538675,-99999.0,'11111222,11111222,99999999' 
TABS,ioos:station:wmo:42051:1,2013-06-04T06:00:00Z,29.6350,-93.6417,2.0,250.1476931,41.04942996,-99999.0,'11111222,11111222,99999999' 
TABS,ioos:station:wmo:42051:1,2013-06-04T06:30:00Z,29.6350,-93.6417,2.0,252.9443297,40.84633276,-99999.0,'11111222,11111222,99999999' 
TABS,ioos:station:wmo:42051:1,2013-06-04T07:00:00Z,29.6350,-93.6417,2.0,251.3811678,43.44359331,-99999.0,'11111222,11111222,99999999' 
TABS,ioos:station:wmo:42051:1,2013-06-04T07:30:00Z,29.6350,-93.6417,2.0,249.1997111,42.07199187,-99999.0,'11111222,11111222,99999999' 
TABS,ioos:station:wmo:42051:1,2013-06-04T08:00:00Z,29.6350,-93.6417,2.0,245.977806,43.13598961,-99999.0,'11111222,11111222,99999999' 
TABS,ioos:station:wmo:42051:1,2013-06-04T08:30:00Z,29.6350,-93.6417,2.0,241.7569356,56.82495667,-99999.0,'11111222,11111222,99999999' 
TABS,ioos:station:wmo:42051:1,2013-06-04T09:00:00Z,29.6350,-93.6417,2.0,245.2709133,53.45158651,-99999.0,'11111222,11111222,99999999' 
TABS,ioos:station:wmo:42051:1,2013-06-04T09:30:00Z,29.6350,-93.6417,2.0,243.1323327,51.71202761,-99999.0,'11111222,11111222,99999999' 
TABS,ioos:station:wmo:42051:1,2013-06-04T10:00:00Z,29.6350,-93.6417,2.0,243.3124355,50.34294886,-99999.0,'11111222,11111222,99999999' 
TABS,ioos:station:wmo:42051:1,2013-06-04T10:30:00Z,29.6350,-93.6417,2.0,246.3080426,47.45984092,-99999.0,'11111222,11111222,99999999' 
TABS,ioos:station:wmo:42051:1,2013-06-04T11:00:00Z,29.6350,-93.6417,2.0,246.860751,46.6203743,-99999.0,'11111222,11111222,99999999' 
TABS,ioos:station:wmo:42051:1,2013-06-04T11:30:00Z,29.6350,-93.6417,2.0,248.8828064,44.60534721,-99999.0,'11111222,11111222,99999999' 
TABS,ioos:station:wmo:42051:1,2013-06-04T12:00:00Z,29.6350,-93.6417,2.0,246.5256089,45.61506878,-99999.0,'11111222,11111222,99999999' 
TABS,ioos:station:wmo:42051:1,2013-06-04T12:30:00Z,29.6350,-93.6417,2.0,251.5313523,43.50029885,-99999.0,'11111222,11111222,99999999' 
TABS,ioos:station:wmo:42051:1,2013-06-04T13:00:00Z,29.6350,-93.6417,2.0,250.8072299,40.42692791,-99999.0,'11111222,11111222,99999999' 
TABS,ioos:station:wmo:42051:1,2013-06-04T13:30:00Z,29.6350,-93.6417,2.0,249.0855383,42.32875736,-99999.0,'11111222,11111222,99999999' 
TABS,ioos:station:wmo:42051:1,2013-06-04T14:00:00Z,29.6350,-93.6417,2.0,247.2289391,41.49398993,-99999.0,'11111222,11111222,99999999' 
TABS,ioos:station:wmo:42051:1,2013-06-04T14:30:00Z,29.6350,-93.6417,2.0,255.5954012,41.16399519,-99999.0,'11111222,11111222,99999999' 
TABS,ioos:station:wmo:42051:1,2013-06-04T15:00:00Z,29.6350,-93.6417,2.0,256.4257091,38.77300736,-99999.0,'11111222,11111222,99999999' 
TABS,ioos:station:wmo:42051:1,2013-06-04T15:30:00Z,29.6350,-93.6417,2.0,260.5166904,36.60014891,-99999.0,'11111222,11111222,99999999' 
TABS,ioos:station:wmo:42051:1,2013-06-04T16:00:00Z,29.6350,-93.6417,2.0,264.256276,40.07114922,-99999.0,'11111222,11111222,99999999' 